264  
ASUS43 KGLD 242208  
RWRGLD  
 
GOODLAND FORECAST AREA HOURLY WEATHER ROUNDUP  
NATIONAL WEATHER SERVICE GOODLAND KS  
400 PM MDT TUE APR 24 2018  
   
..OFFICIAL OBSERVATIONS
 
 
 
CITY SKY/WX TMP DP RH WIND PRES REMARKS
 
GOODLAND KS CLOUDY 42 35 76 N22G32 30.32R  
HILL CITY KS CLOUDY 45 43 93 N16G25 30.28F  
IMPERIAL NEB CLOUDY 43 35 73 N23G33 30.35R  
MCCOOK NEB CLOUDY 46 39 76 N22 30.30F  
AKRON CO CLOUDY 41 31 67 N21 30.37S  
BURLINGTON CO CLOUDY 43 35 73 N23G32 30.33S  
LIMON CO CLOUDY 36 32 85 N22 30.36S  

 
   
..UNOFFICIAL OBSERVATIONS
 
 
 
CITY SKY/WX TMP DP RH WIND PRES REMARKS
 
COLBY KS CLOUDY 43 39 87 N16G23 30.32S  
NORTON KS CLOUDY 45 41 87 NW16G24 30.27  
SHARON SPRINGS N/A 44 39 82 N20G30 N/A  
KIT CARSON CO N/A 43 33 67 MISG N/A  
YUMA CO CLOUDY 37 32 81 N17G25 30.38R  

 
 
 
CLICK HERE TO GO TO PREVIOUS BULLETINS.

The Nexlab KS Page
The Nexlab CO Page
The Nexlab NE Page Main Text Page